Regional Weather Roundup
Issued by NWS

Home | Current Version | Previous Version | Text Only | Print | Product List | Glossary On
Versions: 1 2 3 4 5 6 7 8 9 10 11 12 13 14 15 16 17 18 19 20 21 22 23 24 25 26 27 28 29 30 31 32 33 34 35 36 37 38 39 40 41 42 43 44 45 46 47 48 49 50
000
ASUS42 KFFC 231403
RWRGA
WEATHER ROUNDUP FOR GEORGIA
NATIONAL WEATHER SERVICE PEACHTREE CITY GA
1000 AM EDT WED JUL 23 2014

NOTE: "FAIR" INDICATES FEW OR NO CLOUDS BELOW 12,000 FEET WITH NO
SIGNIFICANT WEATHER AND/OR OBSTRUCTIONS TO VISIBILITY.

* = USE WITH CAUTION. THE STATIONS MARKED WITH AN ASTERISK MAY NOT
REPORT WEATHER SUCH AS PRECIPITATION, FOG, OR THUNDER AND ARE NOT
QUALITY CONTROLLED BY NWS.

THE REMARK "TC" DENOTES TEMPERATURE READING IN DEGREES CELSIUS.

GAZ001>058-231500-
NORTH GEORGIA

CITY           SKY/WX    TMP DP  RH WIND       PRES   REMARKS
ATLANTA        MOSUNNY   80  70  71 CALM      30.13R
ATHENS         SUNNY     81  72  74 CALM      30.13S
CHAMBLEE       PTSUNNY   79  71  76 CALM      30.13R
PEACHTREE CITY SUNNY     78  71  79 CALM      30.13R
ROME           CLOUDY    78  74  87 VRB3      30.11S
WEST ATLANTA   MOSUNNY   79  72  79 CALM      30.12S
GAINESVILLE    MOSUNNY   78  70  76 S3        30.16S
CARTERSVILLE   CLOUDY    78  72  81 CALM      30.12F


CITY           SKY/WX    TMP DP  RH WIND       PRES   REMARKS
DALTON*        CLOUDY    77  73  88 S3        30.12S
LAWRENCEVILLE* PTSUNNY   79  66  65 CALM      30.13S
MARIETTA       PTSUNNY   78  74  87 VRB1      30.13F
KENNESAW*      PTSUNNY   77  73  88 CALM      30.14R
$$

GAZ059>098-102>109-231500-
CENTRAL GEORGIA

CITY           SKY/WX    TMP DP  RH WIND       PRES   REMARKS
AUGUSTA-BUSH   SUNNY     83  72  69 NW8       30.09S
AUGUSTA-DANIEL MOSUNNY   82  72  71 VRB7      30.11S
COLUMBUS       SUNNY     78  72  81 CALM      30.10S
MACON          MOSUNNY   79  75  87 CALM      30.10S
ROBINS AFB     MOSUNNY   80  73  80 CALM      30.10S


CITY           SKY/WX    TMP DP  RH WIND       PRES   REMARKS
LAGRANGE*      MOSUNNY   82  76  82 CALM      30.12S
SYLVANIA*      SUNNY     83  78  84 W5        30.10S HX  92
MILLEDGEVILLE* SUNNY     64  59  82 CALM      30.10S
$$

GAZ099>101-110>166-231500-
SOUTH GEORGIA

CITY           SKY/WX    TMP DP  RH WIND       PRES   REMARKS
SAVANNAH       MOSUNNY   84  74  71 W5        30.08S HX  91
VALDOSTA       SUNNY     87  71  58 CALM      30.10R HX  93
ALMA           MOSUNNY   81  74  79 VRB3      30.10R
ST SIMONS      PTSUNNY   83  74  74 W7        30.08S
FT STEWART     SUNNY     83  74  74 SW3       30.07F HX  91
ALBANY         SUNNY     81  74  79 W3        30.11S
HUNTER AFB     MOSUNNY   84  75  73 VRB2      30.07R HX  92
MOODY AFB      SUNNY     81  77  88 NW1       30.09S
BRUNSWICK      MOSUNNY   84  73  70 CALM      30.09S HX  91


CITY           SKY/WX    TMP DP  RH WIND       PRES   REMARKS
BAINBRIDGE*    SUNNY     84  77  79 W3        30.09F HX  94
MOULTRIE*      SUNNY     81  75  83 W3        30.10F
VIDALIA*         N/A     81  77  89 SW5       30.10S
WAYCROSS*      SUNNY     84  78  80 CALM      30.09S HX  95
DOUGLAS*       MOSUNNY   81  75  83 CALM      30.11S
$$


USA.gov is the U.S. government's official web portal to all federal, state and local government web resources and services.